STARLINK-2278 (48026 NORAD) Tracking and Keplerian Element Data

This shows tracking and keplerian element data for the satellite.

Feedback or suggestion? Click here.




ElementValue
Catalog48026
NameSTARLINK-2278
Epoch Orbit1515
Epoch Day173.89329961
Epoch Year2021
RAAN140.8283
Inclination53.0429
Eccentricity0.0001092
Argument of Perigee64.6828
Mean Anonmoly295.4274
Mean Motion15.04767124
Decay Rate2.76E-06
L11 48026U 21024BB 21173.89329961 .00000276 00000-0 38798-4 0 9994
L22 48026 53.0429 140.8283 0001092 64.6828 295.4274 15.04767124 15159

Live tracking and technical data element details for STARLINK-2278 (NORAD 48026). STARLINK-2278 can be tracked NOW for your location showing map with azimuth and elevation plus other details from your city location.

Track the satellite on the map from your city or location and see movement details for azimuth, elevation, latitude, longitude, range, height, and movement on the map or in text.







IsCatalogInMostPopularTable: catalog: 48026, numindb: 37
Update: records affected: 1



GetName: 48026 STARLINK-2278

Hit Count: updated at: Thu, 24 Jun 2021 04:19:15 GMT